Other Public Products
Issued by NWS Charleston, SC

Home | Current Version | Previous Version | Text Only | Print | Product List | Glossary Off
Versions: 1 2 3 4 5 6 7 8 9 10 11 12 13 14 15 16 17 18 19 20 21 22 23 24 25 26 27 28 29 30 31 32 33 34 35 36 37 38 39 40 41 42 43 44 45 46 47 48 49 50

000
FPUS82 KCHS 220810
OPUCHS

TEST...KCHS/KSAV Gateway Observations...TEST
National Weather Service Charleston SC
300 AM EST WED FEB 22 2017

NOTE: "fair" indicates few or no clouds below 12,000 feet with no
significant weather and/or obstructions to visibility.

SCZ050-WAZ558-NCZ071-TXZ119-213-PAZ071-DCZ001-FLZ074-172-MI076-
NYZ176-178-MAZ016-IL014-TNZ027-NJZ106-GAZ044-MD014-220900-
...Gateway Observations for Charleston International...

CITY           SKY/WX    TMP DP  RH WIND       PRES   REMARKS
Chas Airport   MOCLDY    58  55  90 CALM      29.97F
Seattle        CLOUDY    39  37  92 NE10      30.15R WCI  32
Charlotte      CLOUDY    53  50  89 NE5       30.01F
Dallas DFW     CLEAR     53  40  61 CALM      29.92S
Dallas Love    CLEAR     53  45  74 CALM      29.93F
Philladelphia  CLOUDY    42  36  79 S3        30.07F
Wash National  CLOUDY    46  40  79 S8        30.05F
Baltimore      CLOUDY    44  39  82 CALM      30.05F
Miami          MOCLDY    67  62  84 SE6       29.84F
Detroit        FOG       44  43  96 CALM      29.88F VSB 3/4
Newark         CLOUDY    42  34  73 SW5       30.08S
Laguardia      CLOUDY    45  34  65 SW10      30.07
J F K          CLOUDY    40  38  93 SW6       30.09S WCI  36
Boston Logan   CLOUDY    38  32  79 SW12      30.05F WCI  30
Ft. Lauderdale LGT RAIN  73  64  73 SE13      29.83F
Chicago O`Hare PTCLDY    51  49  92 S8        29.82F FOG
Chicago Midway PTCLDY    53  50  89 S6        29.84F FOG
Houston Bush   CLEAR     58  49  72 NW6       29.90F
Houston Hobby  CLEAR     58  49  72 CALM      29.90F
Nashville      CLOUDY    57  54  89 NE5       29.91F FOG
Atlanta        LGT RAIN  61  60  97 E8        29.89F

$$

GAZ044-118-TXZ119-213-NCZ071-DCZ001-MDZ014-506-PAZ021-071-NJZ106-
NYZ176-178-MAZ106-OHZ011-021-055-MIZ076-KYZ091-ILZ014-INZ047-
MNZ060-220900-
...Gateway Observations for Savannah International...

CITY           SKY/WX    TMP DP  RH WIND       PRES   REMARKS
Savannah Arpt  CLOUDY    64  61  90 E6        29.93F
Atlanta        LGT RAIN  61  60  97 E8        29.89F
Charlotte      CLOUDY    53  50  89 NE5       30.01F
Dallas DFW     CLEAR     53  40  61 CALM      29.92S
Houston Bush   CLEAR     58  49  72 NW6       29.90F
Wash National  CLOUDY    46  40  79 S8        30.05F
Wash Dulles    CLOUDY    46  37  71 S6        30.03F
Baltimore      CLOUDY    44  39  82 CALM      30.05F
Philadelphia   CLOUDY    42  36  79 S3        30.07F
Newark         CLOUDY    42  34  73 SW5       30.08S
Laguardia      CLOUDY    45  34  65 SW10      30.07
J F K          CLOUDY    40  38  93 SW6       30.09S WCI  36
Boston         CLOUDY    38  32  79 SW12      30.05F WCI  30
Pittsburg      CLOUDY    53  44  71 SE3       29.93F
Akron          CLOUDY    56  46  69 W6        29.92F
Cleveland      CLOUDY    54  46  74 SW3       29.94S
Cincinnati     CLOUDY    56  55  97 S7        29.92F FOG
Columbus       CLOUDY    51  51 100 CALM      29.93S FOG
Detroit        FOG       44  43  96 CALM      29.88F VSB 3/4
Chicago O`Hare PTCLDY    51  49  92 S8        29.82F FOG
Minneapolis    CLOUDY    43  40  89 CALM      29.66F
Indianapolis   CLOUDY    53  52  96 SE6       29.89F FOG

$$




USA.gov is the U.S. government's official web portal to all federal, state and local government web resources and services.